CZ-6A DEB, 61824

Orbit data source: Space-Track

CZ-6A DEB, 61824 is space debris in LEO originally from a launch on Tue, 06 Aug 2024 UTC launched from the Taiyaun Space Center, China (TSC). Debris objects in space refer to the collection of defunct objects orbiting the Earth. Examples of debris include non-operational satellites, rocket bodies, and fragments generated from explosions, collisions, or faulty payload assembly.

Loading next visibility...
Identifier
61824, 2024-140ACQ
Orbit
LEO
Country
Flag of CNCN / PRC
Related business
Manufacturer
SAST
Mission
Spacecraft
Bus & Motor
Unknown
Mass
Unknown
Launch date (UTC)
2024-08-06 (2 years ago)
Launch vehicle
Unknown
Launch site
Taiyaun Space Center, China (TSC)
Object type
Payload
Rocket body
Debris
Shape & HBR
Unknown shape, 0.1 m
Radar Cross Section
Medium (>0.1 m² and <1 m²)

Expand to show TLE details & history
Last TLE update: 14 hours ago

TLE from 14 hours ago
0 CZ-6A DEB
1 61824U 24140ACQ 26171.26635111  .00002741  00000-0  90733-3 0  9993
2 61824  88.9123 265.3478 0005975   1.1488 358.9724 14.37698562 92782
Epoch: 2026-06-20T06:23Z
TLE epoch observation values (Epoch: 2026-06-20T06:23:32.735Z)
Latitude
-0.0001°
Longitude
-99.02204°
Altitude
764.922 km
Speed
7.474 km/s
True Right ascension
17h 41m 23s
True Declination
0° 00' 00"
Sunlit
Object was in full shadow at epoch
Visualization orbit readout
Latitude
Unknown
Longitude
Unknown
Altitude
Unknown
Speed
Unknown
Apparent Right ascension
Unknown
Apparent Declination
Unknown
Sunlit
N/A
Visualization observer readout
Local Sidereal Time
07:21:20
Azimuth
Unknown
Elevation
Unknown
Doppler factor
Unknown
Orbital elements
Apogee altitude
767.306 km
Perigee altitude
758.772 km
Semi-major axis
7,141.176 km
Eccentricity
0.0006
Inclination
88.9123°
RAAN
265.3478°
Arg. of periapsis
1.1488°
True anomaly
358.97117°
Mean anomaly
358.9724°
Eccentric anomaly
358.97179°
Mean motion
3.59657 °/min
Orbital period
100.1 mins
BSTAR
0.00090733
Loading maneuver chart data...
Computing Atmospheric mass density...
Loading historical data...
Loading historical data...
Loading historical data...
Loading historical data...
Loading historical data...
Loading historical data...
Loading historical data...

Documentation

Showing up to 5 results
|